Date String (YYYY-MM-DD hh:mm:ss) UTC,Instrument flags,absolute air pressure of the measurement (hPa),sample flow rate (lpm),inlet stack bypass flow (lpm),air temperature of the measurement (°C),ambient temperature measured by the external sensor (°C),aerosol sample conditioner tube jacket temperature (°C),OPC LED temperature (°C),internal box temperature (°C),relative humidity of the measurement (%),span deviation,mass concentration of particles derived from Lorenz-Mie calculation of OPC scattering (μg/m³),mass concentration of particles derived from Lorenz-Mie calculation of OPC scattering (μg/m³),mass concentration of particles derived from Lorenz-Mie calculation of OPC scattering (μg/m³)
DateTimeUTC,F1_M11,P_M11,Q1_M11,Q2_M11,T1_M11,T2_M11,T3_M11,T4_M11,T5_M11,U1_M11,ZSPAN_M11,X0_M11,X2_M11,X1_M11
2023-09-26 01:00:00,SystemResetWarning,0835.2,4.99,000.00,027.9,026.4,000.0,036.2,029.6,10.6,0000.0,0012.66,0004.21,0003.26
2023-09-26 01:01:00,SystemResetWarning,0835.2,5.00,000.00,027.9,026.6,000.0,036.3,029.7,10.6,0000.6,0012.92,0004.24,0003.26
2023-09-26 01:02:00,SystemResetWarning,0835.3,5.00,000.00,028.0,026.8,000.0,036.3,029.8,10.5,0000.2,0012.82,0004.23,0003.26
2023-09-26 01:03:00,SystemResetWarning,0835.3,5.00,000.00,028.0,027.0,000.0,036.3,029.8,10.5,0000.0,0013.09,0004.27,0003.25
2023-09-26 01:04:00,SystemResetWarning,0835.3,5.00,000.00,028.1,027.1,000.0,036.3,029.9,10.6,0000.0,0013.52,0004.27,0003.26
2023-09-26 01:05:00,SystemResetWarning,0835.3,5.00,000.00,028.1,027.3,000.0,036.3,030.0,10.6,0000.0,0013.85,0004.30,0003.25
2023-09-26 01:06:00,SystemResetWarning,0835.3,5.00,000.00,028.2,026.7,000.0,036.4,030.0,10.7,0000.0,0013.88,0004.33,0003.25
2023-09-26 01:07:00,SystemResetWarning,0835.3,5.00,000.00,028.1,024.7,000.0,036.4,029.8,10.8,0000.0,0013.34,0004.33,0003.26
2023-09-26 01:08:00,SystemResetWarning,0835.2,5.00,000.00,028.0,023.7,000.0,036.3,029.5,10.7,0000.0,0013.46,0004.37,0003.26
2023-09-26 01:09:00,SystemResetWarning,0835.2,5.01,000.00,027.9,023.8,000.0,036.3,029.4,10.8,0000.0,0014.64,0004.43,0003.28
2023-09-26 01:10:00,SystemResetWarning,0835.2,5.00,000.00,027.8,024.2,000.0,036.2,029.3,10.8,0000.0,0014.85,0004.42,0003.28
2023-09-26 01:11:00,SystemResetWarning,0835.2,5.00,000.00,027.8,024.6,000.0,036.2,029.3,10.9,0000.0,0014.22,0004.40,0003.28
2023-09-26 01:12:00,SystemResetWarning,0835.2,5.00,000.00,027.7,025.0,000.0,036.2,029.3,11.0,0000.0,0013.66,0004.41,0003.29
2023-09-26 01:13:00,SystemResetWarning,0835.2,5.00,000.00,027.7,025.4,000.0,036.2,029.4,11.2,0000.0,0012.83,0004.40,0003.29
2023-09-26 01:14:00,SystemResetWarning,0835.3,5.00,000.00,027.8,025.8,000.0,036.2,029.5,11.1,0000.0,0012.97,0004.33,0003.30
2023-09-26 01:15:00,SystemResetWarning,0835.3,5.00,000.00,027.8,026.1,000.0,036.2,029.5,11.3,0000.4,0013.58,0004.34,0003.30
2023-09-26 01:16:00,SystemResetWarning,0835.3,5.01,000.00,027.8,026.4,000.0,036.2,029.6,11.4,0001.7,0014.00,0004.37,0003.30
2023-09-26 01:17:00,SystemResetWarning,0835.3,5.00,000.00,027.9,026.6,000.0,036.2,029.7,11.5,0002.1,0014.12,0004.38,0003.30
2023-09-26 01:18:00,SystemResetWarning,0835.2,5.00,000.00,027.9,026.8,000.0,036.2,029.7,11.7,0000.0,0014.96,0004.37,0003.29
2023-09-26 01:19:00,SystemResetWarning,0835.2,4.99,000.00,028.0,026.9,000.0,036.3,029.8,11.3,0000.0,0015.56,0004.29,0003.28
2023-09-26 01:20:00,SystemResetWarning,0835.2,5.00,000.00,028.0,027.1,000.0,036.3,029.8,11.2,0000.0,0014.93,0004.24,0003.27
2023-09-26 01:21:00,SystemResetWarning,0835.2,5.00,000.00,028.1,027.2,000.0,036.3,029.9,11.3,0000.0,0014.81,0004.17,0003.27
2023-09-26 01:22:00,SystemResetWarning,0835.2,5.00,000.00,028.1,027.3,000.0,036.3,030.0,11.3,0000.0,0015.77,0004.14,0003.26
2023-09-26 01:23:00,SystemResetWarning,0835.2,5.00,000.00,028.2,027.3,000.0,036.4,030.0,11.2,0000.0,0016.51,0004.09,0003.24
2023-09-26 01:24:00,SystemResetWarning,0835.2,4.98,000.00,028.2,026.0,000.0,036.4,030.0,11.4,0000.0,0016.74,0004.08,0003.24
2023-09-26 01:25:00,SystemResetWarning,0835.2,5.01,000.00,028.1,024.6,000.0,036.4,029.8,11.3,0000.1,0016.63,0004.11,0003.23
2023-09-26 01:26:00,SystemResetWarning,0835.3,5.01,000.00,028.1,024.6,000.0,036.3,029.7,11.3,0001.4,0016.29,0004.09,0003.22
2023-09-26 01:27:00,SystemResetWarning,0835.2,5.00,000.00,028.0,024.8,000.0,036.3,029.5,11.4,0000.0,0015.82,0004.04,0003.22
2023-09-26 01:28:00,SystemResetWarning,0835.3,4.99,000.00,027.9,025.2,000.0,036.3,029.5,11.3,0000.9,0015.82,0003.99,0003.23
2023-09-26 01:29:00,SystemResetWarning,0835.2,5.00,000.00,027.9,025.5,000.0,036.3,029.5,11.3,0001.4,0015.56,0004.04,0003.23
2023-09-26 01:30:00,SystemResetWarning,0835.2,5.00,000.00,027.9,025.9,000.0,036.3,029.6,11.1,0001.1,0014.90,0004.09,0003.25
2023-09-26 01:31:00,SystemResetWarning,0835.2,5.00,000.00,028.0,026.2,000.0,036.3,029.6,11.0,0001.2,0014.48,0004.09,0003.25
2023-09-26 01:32:00,SystemResetWarning,0835.2,5.00,000.00,028.0,026.4,000.0,036.3,029.7,11.0,0000.5,0014.99,0004.11,0003.26
2023-09-26 01:33:00,SystemResetWarning,0835.2,4.99,000.00,028.0,026.6,000.0,036.3,029.7,10.8,0000.7,0014.02,0004.13,0003.26
2023-09-26 01:34:00,SystemResetWarning,0835.2,4.99,000.00,028.1,026.8,000.0,036.4,029.8,10.8,0000.4,0013.29,0004.16,0003.28
2023-09-26 01:35:00,SystemResetWarning,0835.3,5.00,000.00,028.1,027.0,000.0,036.4,029.9,10.7,-000.6,0012.93,0004.17,0003.28
2023-09-26 01:36:00,SystemResetWarning,0835.3,5.01,000.00,028.2,027.1,000.0,036.4,029.9,10.9,-000.2,0012.47,0004.15,0003.28
2023-09-26 01:37:00,SystemResetWarning,0835.2,5.01,000.00,028.2,027.2,000.0,036.4,030.0,10.9,-000.1,0012.72,0004.14,0003.28
2023-09-26 01:38:00,SystemResetWarning,0835.2,4.98,000.00,028.2,026.7,000.0,036.4,030.0,10.9,0000.0,0013.40,0004.14,0003.28
2023-09-26 01:39:00,SystemResetWarning,0835.2,5.00,000.00,028.2,024.9,000.0,036.4,029.9,11.0,0000.0,0012.78,0004.16,0003.29
2023-09-26 01:40:00,SystemResetWarning,0835.2,5.01,000.00,028.1,024.5,000.0,036.4,029.7,11.1,0000.0,0012.82,0004.20,0003.30
2023-09-26 01:41:00,SystemResetWarning,0835.2,5.00,000.00,028.0,024.7,000.0,036.4,029.5,11.2,0000.0,0012.17,0004.21,0003.30
2023-09-26 01:42:00,SystemResetWarning,0835.2,5.00,000.00,027.9,025.0,000.0,036.4,029.4,11.2,0000.0,0011.95,0004.23,0003.30
2023-09-26 01:43:00,SystemResetWarning,0835.3,5.00,000.00,027.9,025.3,000.0,036.4,029.5,11.2,0000.0,0011.99,0004.26,0003.31
2023-09-26 01:44:00,SystemResetWarning,0835.3,4.99,000.00,027.9,025.7,000.0,036.4,029.5,11.2,0000.0,0011.94,0004.27,0003.31
2023-09-26 01:45:00,SystemResetWarning,0835.3,4.99,000.00,027.9,026.0,000.0,036.4,029.6,11.2,0000.0,0011.72,0004.23,0003.31
2023-09-26 01:46:00,SystemResetWarning,0835.2,5.02,000.00,028.0,026.3,000.0,036.4,029.7,11.3,0000.0,0011.67,0004.25,0003.32
2023-09-26 01:47:00,SystemResetWarning,0835.2,4.99,000.00,028.0,026.5,000.0,036.4,029.7,11.2,0000.0,0011.83,0004.29,0003.33
2023-09-26 01:48:00,SystemResetWarning,0835.2,4.99,000.00,028.0,026.7,000.0,036.4,029.8,11.2,0000.0,0011.80,0004.34,0003.33
2023-09-26 01:49:00,SystemResetWarning,0835.2,4.99,000.00,028.1,026.9,000.0,036.4,029.8,11.2,0000.0,0010.74,0004.35,0003.34
2023-09-26 01:50:00,SystemResetWarning,0835.2,5.00,000.00,028.1,027.0,000.0,036.4,029.9,11.2,0000.0,0011.41,0004.33,0003.34
2023-09-26 01:51:00,SystemResetWarning,0835.4,5.00,000.00,028.2,027.1,000.0,036.4,029.9,11.2,0000.0,0011.50,0004.28,0003.33
2023-09-26 01:52:00,SystemResetWarning,0835.3,5.00,000.00,028.2,027.2,000.0,036.4,030.0,11.1,0000.0,0011.82,0004.26,0003.34
2023-09-26 01:53:00,SystemResetWarning,0835.3,5.00,000.00,028.2,027.2,000.0,036.5,030.0,11.1,0000.0,0012.09,0004.31,0003.35
2023-09-26 01:54:00,SystemResetWarning,0835.2,4.99,000.00,028.2,025.7,000.0,036.5,029.9,11.1,0000.0,0011.88,0004.33,0003.34
2023-09-26 01:55:00,SystemResetWarning,0835.2,5.02,000.00,028.2,024.5,000.0,036.4,029.8,11.2,0000.0,0012.13,0004.35,0003.34
2023-09-26 01:56:00,SystemResetWarning,0835.3,5.01,000.00,028.1,024.5,000.0,036.4,029.6,11.2,0000.0,0013.33,0004.39,0003.33
2023-09-26 01:57:00,SystemResetWarning,0835.3,4.99,000.00,028.0,024.8,000.0,036.4,029.5,11.3,0000.0,0014.53,0004.48,0003.33
2023-09-26 01:58:00,SystemResetWarning,0835.3,4.99,000.00,027.9,025.1,000.0,036.4,029.5,11.4,0002.9,0015.15,0004.57,0003.34
2023-09-26 01:59:00,SystemResetWarning,0835.3,5.01,000.00,027.9,025.5,000.0,036.4,029.5,11.3,0002.8,0015.77,0004.53,0003.34
